This is the latest recevied weather packets stored in our database for station/object K5GHS-1. If no packets are shown the sender has not sent any weather packets the latest 10 day(s).
| Time | Temp. | Humidity | Pressure | Rain* | Wind** | Luminosity | Snow |
|---|---|---|---|---|---|---|---|
| 1788046461 | 37.78° C | 33% | 1012.4 hPa | 0 mm | - | 34 W/m² | - |
| 1788046160 | 37.78° C | 34% | 1012.3 hPa | 0 mm | - | 37 W/m² | - |
| 1788045855 | 37.78° C | 33% | 1012.3 hPa | 0 mm | - | 38 W/m² | - |
| 1788045550 | 37.78° C | 34% | 1012.1 hPa | 0 mm | - | 41 W/m² | - |
| 1788045246 | 38.33° C | 32% | 1012.1 hPa | 0 mm | - | 42 W/m² | - |
| 1788044941 | 38.33° C | 31% | 1012.4 hPa | 0 mm | - | 60 W/m² | - |
| 1788044639 | 38.89° C | 31% | 1012.2 hPa | 0 mm | - | 183 W/m² | - |
| 1788044339 | 38.89° C | 31% | 1012.2 hPa | 0 mm | - | 203 W/m² | - |
| 1788044035 | 38.89° C | 30% | 1012.1 hPa | 0 mm | - | 237 W/m² | - |
| 1788043730 | 38.89° C | 31% | 1012.4 hPa | 0 mm | - | 231 W/m² | - |
| 1788043425 | 38.89° C | 30% | 1012.3 hPa | 0 mm | - | 275 W/m² | - |
| 1788043124 | 38.89° C | 31% | 1012.5 hPa | 0 mm | - | 296 W/m² | - |
| 1788042820 | 38.89° C | 29% | 1012.5 hPa | 0 mm | - | 315 W/m² | - |
| 1788042519 | 39.44° C | 29% | 1012.5 hPa | 0 mm | - | 344 W/m² | - |
| 1788042214 | 39.44° C | 29% | 1012.4 hPa | 0 mm | - | 347 W/m² | - |
| 1788041910 | 38.89° C | 29% | 1012.5 hPa | 0 mm | - | 361 W/m² | - |
| 1788041605 | 38.89° C | 29% | 1012.8 hPa | 0 mm | - | 360 W/m² | - |
| 1788041299 | 39.44° C | 30% | 1012.6 hPa | 0 mm | - | 347 W/m² | - |
| 1788040998 | 38.89° C | 29% | 1012.8 hPa | 0 mm | - | 372 W/m² | - |
| 1788040697 | 40° C | 28% | 1012.7 hPa | 0 mm | - | 407 W/m² | - |
| 1788040392 | 39.44° C | 29% | 1012.7 hPa | 0 mm | - | 407 W/m² | - |
| 1788040087 | 39.44° C | 30% | 1012.7 hPa | 0 mm | - | 436 W/m² | - |
| 1788039782 | 38.89° C | 29% | 1013 hPa | 0 mm | - | 416 W/m² | - |
| 1788039477 | 39.44° C | 30% | 1012.8 hPa | 0 mm | - | 451 W/m² | - |
| 1788039172 | 38.89° C | 31% | 1013.1 hPa | 0 mm | - | 448 W/m² | - |
* Rain latest hour (hover to see other rain measurements)
** Current wind speed in m/s (hover to see current wind gust speed)